Location: Brachbach
(49.1847°N, 9.7240°E)
Time: 13:39:56
(UTC+00:00)

Nimbus 7 Rocket - Pass Details

Date: 13 August 2024
Orbit: 921 x 965 km, 99.4° (Epoch: 14 September)

Event Time Altitude Azimuth Distance (km) Brightness Sun altitude
Rises 00:41:58 0° 13° (NNE) 3,594 8.9 -24.1°
Reaches altitude 10° 00:44:26 10° 11° (N) 2,642 7.8 -23.9°
Maximum altitude 00:50:15 66° 291° (WNW) 1,004 4.5 -23.6°
Enters shadow 00:51:46 48° 232° (SW) 1,188 4.5 -23.5°
